This is the latest recevied weather packets stored in our database for station/object K0NV. If no packets are shown the sender has not sent any weather packets the latest 10 day(s).
| Time | Temp. | Humidity | Pressure | Rain* | Wind** | Luminosity | Snow |
|---|---|---|---|---|---|---|---|
| 1778273384 | 24.44° C | 49% | 1009.7 hPa | 0 mm | - | 624 W/m² | - |
| 1778273082 | 24.44° C | 48% | 1009.7 hPa | 0 mm | - | 634 W/m² | - |
| 1778272777 | 24.44° C | 49% | 1010.1 hPa | 0 mm | - | 654 W/m² | - |
| 1778272474 | 25.56° C | 51% | 1010.1 hPa | 0 mm | - | 681 W/m² | - |
| 1778272169 | 24.44° C | 50% | 1010.2 hPa | 0 mm | - | 678 W/m² | - |
| 1778271867 | 25° C | 46% | 1010.2 hPa | 0 mm | - | 656 W/m² | - |
| 1778271564 | 24.44° C | 49% | 1010.4 hPa | 0 mm | - | 659 W/m² | - |
| 1778271261 | 24.44° C | 47% | 1010.3 hPa | 0 mm | - | 172 W/m² | - |
| 1778270958 | 25° C | 49% | 1010.5 hPa | 0 mm | - | 102 W/m² | - |
| 1778270655 | 25° C | 48% | 1010.8 hPa | 0 mm | - | 681 W/m² | - |
| 1778270350 | 25° C | 49% | 1010.5 hPa | 0 mm | - | 689 W/m² | - |
| 1778270047 | 23.89° C | 51% | 1010.7 hPa | 0 mm | - | 563 W/m² | - |
| 1778269742 | 23.89° C | 52% | 1010.8 hPa | 0 mm | - | 652 W/m² | - |
| 1778269440 | 23.33° C | 53% | 1011 hPa | 0 mm | - | 756 W/m² | - |
| 1778269137 | 23.33° C | 51% | 1011.2 hPa | 0 mm | - | 409 W/m² | - |
| 1778268833 | 23.33° C | 52% | 1011.2 hPa | 0 mm | - | 672 W/m² | - |
| 1778268530 | 23.89° C | 52% | 1011.3 hPa | 0 mm | - | 539 W/m² | - |
| 1778268227 | 23.33° C | 51% | 1011.3 hPa | 0 mm | - | 721 W/m² | - |
| 1778267924 | 22.78° C | 52% | 1011.1 hPa | 0 mm | - | 657 W/m² | - |
| 1778267621 | 23.33° C | 53% | 1011.3 hPa | 0 mm | - | 691 W/m² | - |
| 1778267318 | 23.89° C | 54% | 1011.4 hPa | 0 mm | - | 623 W/m² | - |
| 1778267015 | 23.89° C | 53% | 1011.4 hPa | 0 mm | - | 695 W/m² | - |
| 1778266711 | 22.78° C | 56% | 1011.4 hPa | 0 mm | - | 689 W/m² | - |
| 1778266409 | 22.78° C | 54% | 1011.7 hPa | 0 mm | - | 546 W/m² | - |
| 1778266106 | 22.78° C | 55% | 1011.6 hPa | 0 mm | - | 714 W/m² | - |
* Rain latest hour (hover to see other rain measurements)
** Current wind speed in m/s (hover to see current wind gust speed)